Flag for Austria Weather past 2 weeks in Ansfelden, Upper Austria, Austria

Now
75 °F

Overcast.


Feels Like: 78 °F
Forecast: 62 / 76 °F
Wind: 5 mph from West

Location: Linz / Hoersching-Flughafen

Current Time: Aug 1, 2015 at 8:28:09 PM

Latest Report: Aug 1, 2015 at 8:00 PM


Visibility: 25 mi

Pressure: 29.88 "Hg

Humidity: 50%

Dew point: 55 °F

Location of AnsfeldenLocation

Historic Weather in Ansfelden — Graph

°F

Ansfelden temperature yesterday

Maximum temperature yesterday: 76 °F (at 4:00 PM)
Minimum temperature yesterday: 54 °F (at 6:00 AM)
Average temperature yesterday: 66 °F

Past Weeks' High & Low Weather Summary

 TemperatureHumidityPressure
High97 °F (Jul 22, 3:00 PM)95% (Jul 20, 3:00 AM)30.08 "Hg (Jul 20, 3:00 AM)
Low54 °F (Jul 31, 6:00 AM)21% (Jul 22, 3:00 PM)29.66 "Hg (Jul 25, 3:00 AM)
Average72 °F61%29.90 "Hg
* Reported Jul 17 8:00 PM — Aug 1 6:00 PM, Ansfelden, Weather by CustomWeather, © 2015

Note: Actual official high and low records may vary slightly from our data, if they occured in-between our weather recording intervals... More about our weather records

Advertising

Ansfelden weather history for previous 24 hours

 ConditionsComfort  
Time TempWeatherWind HumidityBarometerVisibility
6:00 PM
Sat, Aug 1
81 °FOvercast.5 mph28%29.87 "Hg28 mi
5:00 PM84 °FPartly sunny.N/A28%29.87 "Hg22 mi
4:00 PM82 °FScattered clouds.N/A28%29.87 "Hg18 mi
3:00 PM83 °FScattered clouds.N/A31%29.88 "Hg19 mi
2:00 PM80 °FPartly sunny.N/A32%29.89 "Hg28 mi
1:00 PM78 °FScattered clouds.5 mph33%29.90 "Hg16 mi
12:00 PM76 °FScattered clouds.5 mph35%29.91 "Hg14 mi
11:00 AM74 °FScattered clouds.5 mph38%29.92 "Hg19 mi
10:00 AM71 °FPassing clouds.5 mph43%29.92 "Hg22 mi
9:00 AM68 °FPassing clouds.5 mph50%29.93 "Hg22 mi
8:00 AM65 °FPassing clouds.N/A55%29.93 "Hg25 mi
7:00 AM61 °FScattered clouds.N/A66%29.94 "Hg25 mi
5:00 AM59 °FPassing clouds.N/A68%29.94 "Hg31 mi
4:00 AM61 °FPassing clouds.3 mph62%29.94 "Hg31 mi
3:00 AMN/APassing clouds.14 mphN/AN/A11 mi
2:00 AM64 °FOvercast.6 mph50%29.93 "Hg31 mi
1:00 AM64 °FOvercast.6 mph47%29.94 "Hg31 mi
12:00 AM65 °FPassing clouds.5 mph44%29.95 "Hg31 mi
11:00 PM
Fri, Jul 31
66 °FOvercast.5 mph43%29.96 "Hg6 mi
10:00 PM65 °FPassing clouds.3 mph45%29.97 "Hg31 mi
9:00 PM68 °FPassing clouds.N/A38%29.96 "Hg28 mi
8:00 PM73 °FScattered clouds.N/A29%29.95 "Hg25 mi
Weather by CustomWeather, © 2015

See weather overviewHow to use our weather pages